Temp
55 56 56 56 56 57 57 57 57 56 57 57 57 58 58 58 57 60 64 65 61 60 64 61 62 60 61 62 60 62 62 64 65 61 63 65 64 69 67 72 71 67 65 67 68 66 62 85 86 79 81 83 82 83
55 55 56 56 56 56 56 57 57 56 57 57 57 57 57 57 57 56 64 64 63 58 62 64 66 67 65 65 63 64 62 61 70 64 67 69 63 68 65 63 74 66 75 73 75 75 81 84 82 82 83 80 80 81
55 55 55 55 56 56 56 56 57 56 56 57 57 57 57 57 57 57 59 57 59 55 61 61 61 66 69 68 71 59 65 65 64 65 65 66 57 66 62 64 70 73 73 70 73 78 79 81 81 81 80 79 81 82
55 55 55 55 55 55 56 56 56 56 56 56 57 57 57 57 57 57 58 59 55 50 47 59 67 63 68 69 66 67 65 65 65 65 62 62 60 66 64 66 62 74 69 69 71 77 79 80 81 78 78 80 80 80
54 55 55 55 55 55 56 56 56 56 56 57 56 57 57 57 56 60 61 60 59 52 50 54 62 66 67 66 63 64 64 62 62 59 58 57 64 62 63 64 61 71 68 67 69 79 77 77 79 76 76 77 79 78
54 54 55 55 55 55 55 56 56 56 56 56 56 56 56 56 55 61 54 62 59 54 44 40 60 59 62 62 60 60 62 62 61 59 59 62 66 61 57 57 68 73 75 76 72 80 79 78 78 79 77 79 79 79
54 54 54 55 55 55 55 55 56 56 56 56 56 56 56 55 60 57 54 56 57 54 44 41 48 58 59 60 61 61 62 58 60 57 56 59 60 58 56 53 67 72 73 74 77 75 70 75 75 80 80 80 77 80
54 54 54 54 55 55 55 55 55 55 56 56 56 55 55 54 55 55 63 55 58 52 46 40 49 51 56 52 50 62 57 56 55 56 58 57 60 58 49 61 66 68 69 70 72 74 75 77 77 77 79 78 76 78
54 54 54 54 54 54 55 55 55 55 55 55 55 55 58 53 50 55 57 57 57 51 42 45 44 44 56 55 52 52 55 44 58 50 54 55 53 48 56 59 62 66 66 67 71 71 72 71 72 74 75 76 75 75
54 54 54 54 54 54 54 55 55 55 54 54 56 55 51 53 57 56 50 45 45 45 44 40 54 48 56 51 47 45 44 41 38 42 52 42 46 59 62 64 64 65 67 68 64 63 67 67 70 71 72 74 74 74
54 54 54 54 54 54 54 54 54 54 53 59 52 50 58 56 57 50 45 43 42 40 46 48 50 45 49 42 41 47 42 43 37 42 43 45 50 61 65 65 67 68 68 69 70 69 70 69 70 71 72 73 74 74
54 53 53 54 54 54 54 54 54 57 60 53 54 56 60 53 50 46 43 44 42 44 50 47 44 44 45 48 41 43 39 41 37 47 40 40 57 60 61 60 59 58 59 61 65 66 68 69 69 70 71 72 73 75
53 53 53 53 54 54 54 54 53 54 53 55 49 47 47 44 35 37 37 38 44 54 51 45 42 44 44 44 41 40 37 38 48 40 40 49 60 62 62 61 60 60 59 58 60 64 66 67 70 69 69 72 73 72
53 53 53 53 54 54 54 54 54 55 52 48 45 36 40 38 39 45 48 48 51 50 47 48 47 44 44 40 40 37 42 44 37 36 38 56 56 58 57 57 57 58 60 62 62 64 64 65 67 68 69 71 71 70
53 53 53 54 54 55 54 54 54 55 49 45 45 38 44 51 52 51 52 52 55 55 53 49 50 51 45 40 41 40 39 39 45 48 53 61 56 52 53 52 53 57 62 66 66 66 66 66 67 67 69 70 70 70
53 53 53 53 54 54 53 53 54 52 47 44 43 44 49 43 43 45 45 44 49 48 49 48 45 46 42 42 40 39 38 38 48 55 60 56 52 52 51 53 58 65 65 65 63 61 63 65 66 67 69 69 70 70
53 52 53 53 53 53 52 50 48 44 43 43 41 47 45 42 41 42 44 44 48 44 42 44 39 42 46 42 41 45 42 50 56 56 56 53 51 51 52 53 59 64 61 59 55 56 61 66 68 67 64 67 71 72
57 57 54 53 54 55 52 49 45 44 41 44 41 43 44 44 43 44 45 46 44 44 45 42 45 43 43 43 47 54 52 52 55 55 52 51 52 52 53 54 57 61 61 62 63 64 65 65 65 67 67 69 70 72
55 56 54 53 53 50 45 46 46 41 44 44 44 44 44 45 46 47 46 47 47 48 45 44 41 41 44 51 51 53 56 55 50 49 50 53 55 54 54 55 57 59 62 63 63 65 67 65 69 71 71 68 64 66
53 53 54 54 53 47 43 45 48 43 41 44 44 44 45 45 47 47 46 46 46 45 43 41 43 46 47 49 49 48 50 51 49 48 49 53 55 54 54 56 59 60 59 63 64 56 61 62 61 61 63 65 68 68
56 58 55 55 49 48 45 44 44 45 44 43 46 45 45 47 46 46 46 48 44 43 43 47 51 50 51 54 52 50 50 50 50 50 50 50 53 53 55 60 59 60 60 62 62 59 59 61 64 65 65 66 67 67
60 54 53 52 47 46 44 46 44 46 44 44 44 46 45 45 47 49 48 44 44 46 47 48 49 53 53 51 52 52 53 54 53 53 51 52 53 54 55 56 57 58 58 58 59 59 59 60 62 64 66 65 64 68
54 52 50 49 45 45 46 50 44 46 42 45 47 45 46 47 50 49 45 47 48 50 50 51 52 53 52 54 53 54 57 53 53 53 54 55 56 59 58 59 59 58 58 58 59 58 58 54 58 62 65 65 67 69
52 49 47 48 49 45 53 47 49 46 47 47 46 46 48 49 49 47 44 47 50 52 54 53 54 53 54 54 52 52 53 54 53 55 58 58 59 59 62 62 62 61 62 62 60 59 59 59 55 64 66 65 64 64
44 46 49 41 55 47 45 48 52 53 52 53 50 51 53 56 46 44 43 47 49 51 52 53 54 52 51 52 53 53 56 54 55 59 62 66 69 67 61 63 63 62 65 65 61 61 59 61 61 60 62 64 65 63
41 51 45 51 48 47 50 47 51 51 50 56 57 61 58 51 44 41 44 48 50 50 52 52 51 52 52 53 52 52 54 56 56 57 60 64 65 64 61 62 61 60 64 64 63 63 62 62 62 63 60 59 52 65
45 52 56 58 53 51 51 55 55 53 56 54 56 55 50 42 42 46 51 52 51 52 54 55 55 54 53 54 56 58 61 62 62 62 68 70 70 69 65 61 59 61 66 66 65 64 61 61 61 61 60 63 65 66
54 53 50 54 53 56 50 52 54 56 57 60 60 52 45 44 44 50 52 53 54 56 58 59 59 57 56 57 57 58 58 62 71 69 69 73 73 72 70 69 67 48 63 61 66 64 64 62 62 62 62 61 61 66
54 59 54 51 57 57 58 57 59 61 60 60 58 56 57 61 60 56 57 61 62 59 57 57 58 60 64 64 62 64 71 71 67 65 65 65 67 68 73 72 71 71 72 68 46 52 58 59 60 61 62 64 66 67
52 56 53 57 57 57 60 63 62 64 66 64 64 63 63 64 69 72 70 69 67 68 70 68 67 68 67 68 66 67 71 71 70 68 63 64 66 71 73 73 73 74 74 73 71 64 48 60 58 62 61 61 61 61
52 53 53 57 59 62 64 67 72 72 71 65 66 64 64 65 72 71 69 71 72 72 71 70 67 60 55 56 61 63 66 71 69 69 72 74 74 71 73 75 77 77 76 75 75 74 73 71 69 67 66 65 64 64
58 57 57 57 60 65 69 68 67 65 66 66 66 61 62 67 63 70 71 72 72 71 62 70 70 69 71 72 67 63 47 61 59 62 68 73 74 76 77 78 78 77 76 75 76 75 74 73 73 72 71 70 71 70
58 58 59 59 62 62 65 66 65 63 64 62 62 63 68 65 58 62 73 76 71 73 72 74 76 75 73 73 72 72 62 74 63 46 46 43 41 52 74 79 79 78 77 77 76 75 74 73 73 72 72 72 72 72
MSLP
1023.30 1022.75 1022.26 1021.73 1021.16 1020.63 1020.22 1019.81 1019.38 1019.24 1019.06 1018.91 1018.73 1018.53 1018.41 1018.31 1018.14 1017.49 1016.87 1017.03 1016.22 1014.46 1013.40 1013.70 1013.28 1012.74 1012.43 1011.85 1010.51 1010.97 1011.04 1010.25 1009.52 1008.20 1006.61 1005.13 1004.39 1003.34 1003.23 1002.14 1001.51 1001.88 1001.63 1000.77 1000.84 999.81 998.82 999.14 999.15 999.00 999.69 1000.28 1000.59 1000.40
1023.01 1022.49 1021.97 1021.46 1020.95 1020.45 1020.00 1019.59 1019.24 1019.11 1018.92 1018.75 1018.59 1018.45 1018.27 1018.29 1018.29 1018.01 1016.66 1017.31 1017.27 1016.06 1014.07 1014.55 1014.07 1013.78 1013.48 1013.03 1012.37 1011.77 1010.93 1010.39 1009.31 1008.66 1007.42 1006.11 1005.57 1004.62 1003.83 1002.27 1002.63 1001.73 1000.65 1000.21 999.83 999.24 999.88 999.99 1000.27 1001.16 1001.08 1001.42 1001.61 1001.68
1022.72 1022.18 1021.67 1021.17 1020.66 1020.18 1019.71 1019.34 1018.96 1018.74 1018.66 1018.57 1018.45 1018.32 1018.21 1018.13 1018.11 1018.11 1017.52 1017.78 1017.22 1016.05 1014.07 1013.95 1013.19 1013.53 1013.81 1013.83 1013.56 1012.72 1011.76 1011.56 1011.30 1011.30 1009.32 1008.06 1007.26 1006.29 1004.33 1003.49 1002.25 1002.19 1002.39 1001.45 1000.60 1000.28 1000.45 1000.96 1001.83 1002.33 1002.62 1002.68 1002.67 1002.78
1022.32 1021.80 1021.28 1020.81 1020.36 1019.89 1019.40 1018.95 1018.64 1018.48 1018.41 1018.35 1018.22 1018.09 1018.09 1017.93 1017.89 1017.87 1017.35 1017.54 1017.73 1017.27 1015.50 1013.15 1013.75 1013.62 1013.64 1013.64 1013.77 1013.68 1013.09 1013.09 1012.53 1011.96 1010.50 1009.16 1008.06 1008.05 1005.86 1004.67 1004.42 1002.80 1003.13 1002.23 1001.30 1000.93 1001.16 1001.72 1002.24 1003.19 1003.50 1003.48 1003.44 1003.49
1021.87 1021.37 1020.89 1020.42 1019.99 1019.54 1019.09 1018.64 1018.36 1018.19 1018.08 1018.04 1018.02 1017.98 1017.91 1017.84 1017.73 1017.45 1017.01 1017.12 1017.32 1017.29 1015.86 1014.29 1013.85 1013.40 1013.28 1013.40 1013.49 1013.62 1013.37 1013.12 1012.52 1011.90 1011.04 1009.93 1009.25 1009.02 1007.89 1006.68 1004.35 1004.13 1003.34 1002.51 1001.54 1001.66 1001.69 1001.90 1002.90 1003.94 1004.03 1003.98 1003.96 1003.86
1021.31 1020.85 1020.40 1019.99 1019.58 1019.16 1018.73 1018.33 1018.09 1017.89 1017.79 1017.77 1017.77 1017.77 1017.77 1017.74 1017.62 1016.74 1016.21 1016.63 1017.24 1017.64 1017.19 1015.76 1013.86 1013.49 1013.44 1013.54 1013.40 1013.38 1013.30 1013.23 1013.02 1012.33 1011.47 1010.71 1010.40 1010.13 1007.56 1004.98 1004.32 1004.15 1003.78 1003.66 1003.10 1002.78 1002.88 1003.25 1003.80 1004.01 1004.02 1004.08 1004.16 1004.20
1020.78 1020.38 1019.96 1019.53 1019.14 1018.70 1018.30 1017.93 1017.71 1017.55 1017.54 1017.49 1017.49 1017.50 1017.57 1017.62 1017.15 1016.64 1016.56 1016.81 1017.23 1017.68 1017.22 1016.00 1014.14 1013.79 1013.87 1013.61 1013.28 1013.17 1013.37 1013.45 1013.27 1012.94 1011.92 1011.08 1010.47 1010.59 1008.05 1004.86 1004.26 1003.69 1003.68 1003.58 1003.88 1004.09 1003.52 1003.44 1003.21 1003.43 1003.49 1003.56 1003.96 1003.80
1020.31 1019.90 1019.47 1019.07 1018.68 1018.21 1017.72 1017.41 1017.37 1017.29 1017.25 1017.28 1017.23 1017.24 1017.31 1017.36 1017.28 1016.74 1015.87 1016.96 1017.04 1017.02 1017.11 1016.08 1014.11 1013.80 1014.04 1013.24 1013.09 1013.13 1013.19 1013.60 1013.35 1012.51 1011.62 1010.74 1010.14 1009.64 1006.77 1004.59 1004.46 1004.27 1004.06 1003.81 1003.63 1003.63 1003.24 1003.07 1003.03 1002.84 1003.05 1003.35 1003.25 1003.05
1019.85 1019.42 1018.99 1018.59 1018.17 1017.78 1017.41 1017.28 1017.14 1017.08 1017.00 1016.98 1016.98 1016.97 1016.79 1016.85 1016.44 1015.77 1016.24 1016.63 1016.87 1017.03 1016.58 1015.85 1014.33 1013.24 1013.81 1013.31 1013.48 1013.81 1013.51 1013.46 1012.43 1011.80 1010.87 1010.65 1009.23 1007.08 1005.02 1004.92 1004.71 1004.28 1003.92 1003.71 1003.51 1003.37 1003.25 1002.78 1002.65 1002.63 1002.75 1002.58 1002.39 1002.47
1019.26 1018.88 1018.47 1018.03 1017.68 1017.41 1017.15 1017.07 1016.93 1016.82 1016.73 1016.59 1016.50 1016.10 1015.67 1016.04 1016.11 1016.32 1016.23 1016.65 1016.79 1016.65 1016.64 1015.50 1014.07 1013.30 1013.54 1013.52 1013.79 1014.16 1014.05 1013.55 1012.72 1012.22 1011.55 1010.57 1007.95 1005.94 1005.04 1004.68 1004.70 1004.39 1004.18 1004.04 1003.33 1002.91 1002.81 1002.25 1002.29 1002.31 1002.21 1002.33 1002.22 1002.19
1018.67 1018.29 1017.88 1017.47 1017.21 1016.99 1016.83 1016.77 1016.63 1016.58 1016.47 1015.88 1015.81 1015.54 1015.70 1015.94 1015.53 1015.52 1015.45 1015.71 1015.83 1015.59 1015.18 1014.41 1014.00 1013.85 1014.24 1014.20 1014.15 1014.14 1013.68 1013.10 1012.28 1011.50 1010.88 1008.59 1005.52 1003.79 1003.88 1003.95 1004.26 1004.06 1003.60 1003.11 1002.73 1002.49 1002.36 1002.16 1001.74 1001.42 1001.39 1001.52 1001.60 1001.66
1018.09 1017.69 1017.27 1016.85 1016.75 1016.64 1016.50 1016.52 1016.51 1016.26 1015.85 1016.37 1016.43 1016.29 1015.71 1015.13 1014.82 1014.58 1014.39 1014.60 1014.46 1013.19 1013.19 1013.31 1013.91 1014.24 1014.26 1014.42 1014.38 1014.18 1013.60 1013.02 1011.48 1011.10 1010.41 1007.25 1003.81 1003.86 1003.85 1003.97 1004.02 1004.14 1003.67 1002.85 1002.29 1001.63 1001.31 1001.05 1001.35 1001.24 1001.03 1000.96 1000.96 1001.01
1017.60 1017.20 1016.77 1016.49 1016.31 1016.22 1016.23 1016.27 1016.34 1016.36 1016.50 1016.26 1016.37 1015.77 1015.31 1015.40 1014.83 1013.99 1013.31 1013.22 1012.44 1011.91 1012.52 1013.26 1013.69 1013.85 1014.17 1014.38 1014.24 1013.89 1012.97 1011.68 1010.96 1009.79 1007.76 1004.93 1003.48 1003.39 1003.19 1003.01 1002.53 1002.18 1001.79 1001.15 1000.34 1000.13 1000.05 999.79 999.98 1000.22 1000.26 1000.35 1000.52 1000.64
1017.17 1016.78 1016.51 1016.17 1015.79 1015.78 1015.90 1016.11 1016.23 1016.25 1016.22 1015.57 1015.29 1015.18 1014.66 1014.18 1013.68 1012.72 1012.10 1011.97 1011.77 1012.20 1012.65 1012.83 1012.84 1013.07 1013.36 1013.66 1013.36 1012.64 1011.57 1010.43 1008.90 1007.25 1005.24 1003.51 1003.28 1002.98 1002.39 1001.59 1000.74 999.69 999.04 998.04 997.53 997.63 997.70 998.01 998.02 998.81 999.42 999.89 999.96 999.93
1017.02 1016.68 1016.38 1016.21 1015.84 1015.65 1015.73 1015.94 1016.05 1016.00 1015.92 1015.38 1015.13 1014.18 1013.30 1012.80 1012.63 1012.69 1012.70 1012.42 1012.09 1012.19 1012.06 1012.17 1011.91 1011.79 1011.96 1012.22 1011.88 1011.11 1009.68 1007.84 1005.89 1003.85 1003.06 1002.43 1002.76 1002.20 1001.25 1000.01 999.24 997.83 996.36 995.60 995.73 995.58 995.44 996.15 996.73 997.31 998.28 998.88 999.19 999.17
1016.90 1016.54 1016.50 1016.41 1016.18 1015.94 1015.84 1015.97 1015.99 1015.93 1015.78 1015.38 1014.87 1013.78 1013.22 1013.44 1013.15 1013.12 1012.98 1012.83 1012.81 1012.76 1012.59 1012.41 1011.78 1010.84 1010.42 1010.18 1009.66 1008.66 1007.57 1005.74 1003.99 1003.21 1002.69 1002.62 1002.16 1001.48 1000.36 999.19 997.48 995.62 995.02 994.69 994.70 994.35 994.03 994.57 995.31 996.11 997.42 997.97 998.12 997.97
1016.87 1016.74 1016.71 1016.53 1016.32 1016.12 1016.08 1016.13 1016.05 1015.86 1015.40 1014.87 1014.08 1013.78 1013.68 1013.62 1013.26 1013.05 1013.03 1012.93 1012.87 1012.78 1012.18 1011.75 1011.20 1010.13 1009.21 1008.28 1007.69 1007.05 1005.91 1004.40 1003.44 1003.07 1002.74 1002.33 1001.52 1000.04 998.92 997.69 996.07 994.61 994.14 993.95 993.91 993.61 993.61 994.20 994.93 995.68 996.34 996.73 996.80 996.70
1016.57 1016.49 1016.64 1016.51 1016.23 1015.68 1015.81 1015.87 1015.78 1015.38 1014.75 1014.19 1013.89 1013.42 1013.34 1013.17 1012.84 1012.64 1012.41 1012.44 1012.63 1012.32 1011.86 1011.40 1011.13 1009.88 1008.43 1007.03 1005.84 1005.22 1004.83 1004.00 1003.62 1002.96 1002.33 1001.47 1000.18 998.68 997.23 996.23 994.78 993.52 993.55 993.38 993.11 993.22 993.45 993.72 994.13 994.52 995.29 995.72 995.77 995.50
1016.80 1016.49 1016.24 1016.10 1016.05 1015.93 1015.75 1015.66 1015.67 1015.08 1014.20 1013.77 1013.34 1013.01 1012.80 1012.34 1011.92 1011.82 1011.79 1011.82 1011.94 1011.87 1011.68 1010.95 1010.27 1009.05 1007.89 1006.78 1005.90 1005.44 1004.45 1003.98 1003.67 1002.73 1001.89 1000.68 999.51 997.99 996.64 994.85 994.12 993.43 993.19 993.13 993.15 993.06 993.35 993.88 993.60 993.90 994.28 994.63 994.59 994.34
1016.33 1016.10 1015.87 1015.59 1015.81 1015.75 1015.66 1015.37 1015.34 1014.82 1014.09 1013.50 1013.09 1012.54 1012.08 1011.66 1011.21 1011.03 1011.02 1011.13 1011.33 1011.32 1010.94 1010.24 1009.01 1007.83 1007.14 1006.56 1006.06 1005.86 1005.16 1004.33 1003.78 1002.60 1001.51 999.78 998.89 997.79 996.37 994.98 994.08 992.58 993.04 992.71 992.94 993.00 993.24 993.62 993.87 993.90 993.65 993.34 993.00 992.85
1015.95 1015.71 1015.70 1015.62 1015.73 1015.67 1015.52 1015.08 1014.71 1014.29 1013.73 1013.10 1012.49 1012.06 1011.35 1010.91 1010.67 1010.46 1010.45 1010.70 1010.77 1010.33 1009.50 1008.48 1007.56 1006.93 1006.80 1006.14 1005.76 1005.52 1004.85 1004.22 1003.63 1002.92 1001.42 1000.19 998.83 997.77 997.15 995.87 994.93 994.35 993.86 993.41 992.96 992.80 992.87 992.62 992.63 992.83 992.94 992.96 992.95 992.89
1015.80 1015.89 1015.65 1015.65 1015.51 1015.26 1015.11 1014.78 1014.50 1013.89 1013.44 1012.53 1012.00 1011.43 1010.81 1010.20 1009.80 1009.57 1009.90 1010.16 1009.69 1008.61 1008.24 1007.54 1006.82 1006.57 1006.07 1005.59 1005.25 1005.03 1004.48 1003.98 1003.23 1002.01 1000.79 999.67 998.95 997.82 996.78 996.09 995.84 995.07 994.75 994.28 994.00 994.02 993.70 993.70 993.80 993.54 993.38 993.41 993.47 993.06
1016.07 1016.07 1015.72 1015.53 1015.21 1014.65 1014.17 1013.98 1013.61 1012.96 1012.53 1011.61 1011.09 1010.67 1010.09 1009.54 1009.04 1009.48 1009.46 1009.03 1008.54 1008.12 1007.64 1007.12 1006.54 1006.17 1005.86 1005.21 1004.92 1004.64 1004.21 1003.86 1003.11 1001.94 1000.89 1000.12 999.51 998.71 998.32 997.70 997.11 996.22 995.44 995.03 994.83 993.92 994.43 994.79 994.59 994.24 994.08 994.13 993.97 993.83
1016.22 1015.85 1015.31 1014.93 1014.54 1013.90 1013.17 1012.92 1012.49 1012.04 1011.43 1010.68 1009.98 1009.43 1009.23 1009.11 1009.11 1009.10 1009.09 1008.69 1008.19 1007.68 1006.89 1006.43 1006.09 1005.76 1005.35 1005.07 1004.89 1004.64 1004.53 1003.98 1003.20 1002.38 1001.36 1000.15 999.26 999.17 998.83 998.71 998.27 997.71 996.66 996.75 996.22 996.35 995.76 995.64 995.72 995.53 995.34 995.33 995.27 995.12
1015.86 1015.52 1014.99 1014.40 1013.96 1013.66 1012.87 1012.11 1011.33 1010.55 1009.97 1009.44 1008.84 1008.16 1007.93 1008.36 1008.81 1008.99 1009.15 1008.61 1008.00 1007.67 1007.07 1006.40 1006.18 1005.96 1005.87 1005.55 1005.21 1004.56 1004.15 1004.01 1003.54 1002.67 1002.00 1001.06 999.74 999.28 999.06 998.88 999.04 998.49 997.87 997.18 996.86 996.83 996.59 996.88 997.74 997.20 996.88 996.55 996.45 996.47
1015.16 1014.80 1014.62 1014.23 1013.80 1013.44 1012.68 1011.95 1011.10 1010.58 1009.93 1008.44 1007.83 1007.32 1007.40 1008.18 1009.28 1009.54 1009.17 1008.80 1008.32 1007.94 1007.29 1006.91 1006.76 1006.47 1006.24 1006.02 1005.52 1005.14 1004.57 1004.19 1003.59 1002.73 1002.52 1001.86 1001.30 1000.65 1000.11 999.55 999.56 999.79 999.38 999.09 998.84 998.61 998.68 998.54 998.60 998.71 998.53 997.80 997.92 997.58
1014.87 1014.18 1013.92 1013.90 1013.79 1013.33 1012.54 1011.77 1011.08 1010.10 1008.98 1008.55 1008.23 1007.73 1008.21 1009.01 1009.33 1009.42 1009.22 1009.02 1008.63 1008.35 1007.81 1007.46 1007.09 1006.83 1006.60 1006.21 1005.80 1005.31 1004.78 1004.32 1003.86 1003.30 1002.41 1001.90 1001.59 1001.41 1001.23 1000.88 1000.49 1000.76 1000.25 999.90 999.95 999.92 1000.00 999.86 999.84 999.57 999.31 999.59 999.58 999.33
1014.98 1014.59 1013.88 1013.39 1013.03 1012.62 1012.16 1011.37 1010.48 1009.61 1009.36 1009.26 1008.62 1008.77 1009.57 1009.98 1010.15 1010.04 1009.57 1009.14 1008.89 1008.55 1007.96 1007.59 1007.37 1007.13 1006.76 1006.53 1006.15 1005.56 1004.93 1004.26 1003.04 1003.03 1002.64 1002.06 1001.99 1001.79 1001.73 1001.62 1001.70 1001.87 1001.38 1001.21 1000.80 1000.80 1000.76 1000.72 1000.73 1000.70 1000.71 1000.74 1000.63 1000.25
1014.70 1014.21 1014.02 1013.14 1012.31 1011.81 1011.27 1010.74 1010.14 1009.91 1010.22 1009.83 1009.44 1009.51 1009.84 1009.99 1010.11 1010.01 1009.79 1009.16 1008.48 1008.02 1007.57 1007.40 1007.24 1006.92 1006.37 1005.99 1005.90 1005.44 1004.53 1003.79 1003.29 1003.05 1002.78 1002.51 1002.33 1002.36 1002.07 1001.94 1001.80 1001.48 1001.41 1001.97 1002.52 1002.23 1002.28 1002.26 1002.23 1002.06 1001.67 1001.37 1001.24 1001.04
1014.69 1014.38 1013.67 1012.67 1011.80 1011.23 1011.08 1010.69 1010.31 1010.14 1009.99 1009.98 1010.00 1009.82 1009.73 1009.83 1009.61 1009.51 1009.13 1008.69 1008.30 1007.70 1007.32 1007.33 1007.26 1006.68 1006.37 1005.97 1005.77 1005.69 1005.55 1005.22 1004.91 1004.65 1004.65 1004.33 1004.10 1003.53 1003.02 1002.76 1002.52 1002.31 1002.11 1002.03 1002.36 1002.99 1002.92 1002.59 1002.74 1002.58 1002.41 1002.41 1002.49 1002.52
1014.75 1014.33 1013.55 1012.49 1011.65 1011.29 1011.05 1010.70 1009.91 1009.74 1009.87 1010.14 1010.03 1009.62 1009.42 1009.33 1009.13 1009.41 1009.29 1008.79 1008.22 1008.08 1007.69 1007.50 1007.66 1007.94 1007.74 1007.65 1007.30 1006.80 1006.52 1006.41 1006.40 1006.10 1005.70 1004.99 1004.72 1004.61 1004.03 1003.61 1003.35 1003.14 1002.92 1002.86 1002.79 1002.73 1002.68 1002.73 1002.84 1002.85 1002.98 1003.05 1003.23 1003.30
1014.13 1013.58 1012.93 1011.88 1011.45 1011.20 1010.73 1010.63 1010.35 1010.43 1010.31 1010.35 1010.26 1010.38 1010.35 1009.62 1009.32 1009.22 1009.48 1009.11 1008.45 1008.13 1008.09 1007.95 1007.79 1007.74 1007.64 1007.52 1007.87 1008.02 1008.54 1007.79 1007.48 1007.18 1006.70 1005.98 1005.63 1005.29 1005.00 1004.62 1004.37 1004.24 1003.96 1003.72 1003.73 1003.80 1003.77 1003.72 1003.68 1003.70 1003.80 1003.89 1003.95 1003.90
1013.62 1013.14 1012.41 1011.87 1011.36 1011.07 1011.17 1011.01 1010.76 1010.92 1011.11 1011.08 1011.06 1010.83 1010.13 1010.10 1010.21 1010.37 1010.08 1009.74 1009.77 1009.04 1008.74 1008.33 1007.98 1007.90 1008.02 1007.92 1007.88 1007.51 1007.50 1007.27 1007.49 1007.53 1007.40 1007.22 1006.99 1006.54 1005.74 1005.39 1005.23 1004.94 1004.67 1004.70 1004.73 1004.71 1004.67 1004.69 1004.70 1004.74 1004.72 1004.73 1004.64 1004.66
Wind_Speed
19 18 18 20 20 17 16 16 12 4 6 6 7 8 8 8 5 7 4 5 6 4 3 4 4 5 4 6 6 6 6 7 5 9 8 6 8 10 14 13 15 13 10 13 14 18 22 3 5 12 5 6 5 4
19 18 18 19 19 17 14 15 11 5 7 7 7 7 7 6 3 6 0 4 5 5 6 5 9 10 9 10 8 5 6 3 2 6 4 4 5 4 11 14 13 13 16 11 12 10 6 3 6 7 5 6 6 6
19 18 18 18 19 18 16 15 11 7 7 7 7 7 7 7 6 4 2 1 4 4 6 5 4 2 10 12 8 8 4 4 4 6 5 3 7 4 9 12 13 14 4 8 8 10 7 9 8 8 6 6 2 6
18 19 18 17 18 18 17 17 10 8 6 7 7 6 6 7 4 3 3 2 1 3 4 4 3 3 3 6 8 12 11 4 6 4 5 5 6 2 8 6 9 10 3 12 11 9 2 7 10 5 4 6 5 6
19 18 18 17 17 17 17 15 9 9 6 6 6 6 5 7 4 6 4 4 4 4 4 6 12 3 1 8 10 12 13 10 5 7 7 7 8 4 9 10 14 15 14 13 10 13 11 3 10 2 6 7 6 9
18 17 17 17 17 17 17 14 9 9 6 6 6 6 5 5 5 4 4 3 2 2 2 3 5 2 2 1 5 10 9 9 8 5 5 6 9 6 9 15 19 22 20 19 16 17 10 6 8 11 14 13 8 10
17 17 17 17 17 17 17 15 9 10 5 6 7 5 5 3 5 4 5 3 6 4 2 3 3 3 3 2 4 5 7 4 5 7 9 10 8 5 11 21 11 6 11 18 20 18 23 24 18 16 15 12 11 14
17 16 17 18 17 18 18 9 8 4 6 6 6 5 4 4 7 5 2 10 6 2 1 3 2 3 2 3 3 4 6 6 6 6 6 9 8 9 11 9 14 22 25 23 17 18 21 21 20 20 15 16 18 16
16 16 17 18 16 16 8 7 7 5 7 7 7 8 5 3 2 1 6 10 5 3 2 3 3 1 4 2 2 3 3 5 4 6 8 6 9 13 13 13 16 15 16 15 16 21 25 25 22 21 18 20 19 17
16 16 17 17 14 13 8 8 7 6 7 8 5 4 3 2 4 5 3 3 3 3 3 4 3 3 3 4 2 1 3 3 4 6 3 4 12 23 21 21 19 19 19 18 20 22 22 23 22 22 23 20 19 18
17 16 17 17 13 11 9 7 5 6 6 4 2 1 2 2 4 3 4 4 3 4 5 4 7 5 1 4 3 3 1 2 4 4 5 5 7 3 5 6 10 18 22 24 23 24 24 23 21 19 18 19 18 18
16 16 17 11 10 10 8 5 3 5 3 4 3 2 2 3 3 4 2 3 5 4 4 3 3 4 2 2 3 3 3 3 5 6 4 6 5 3 3 13 14 16 19 26 30 29 28 26 24 22 20 17 16 17
16 16 14 12 10 9 5 4 5 3 2 2 2 3 3 2 3 5 5 4 5 4 4 2 3 3 3 3 3 3 5 5 1 5 6 7 5 8 19 22 25 22 22 24 28 30 30 28 25 24 22 19 17 16
15 12 11 12 11 7 5 4 3 3 4 3 3 3 4 5 4 5 5 5 4 4 5 4 3 5 4 4 2 5 5 4 6 6 7 7 8 18 20 21 25 30 28 26 24 27 30 29 26 24 21 19 17 18
12 12 9 8 11 6 6 5 4 3 2 3 3 4 6 4 3 2 4 5 5 6 6 5 5 4 4 4 5 5 5 6 6 5 6 11 16 17 21 26 26 25 21 16 17 21 25 26 24 22 20 18 19 19
13 7 3 8 11 9 4 3 2 1 2 3 4 4 2 3 6 6 6 5 2 3 3 3 4 4 7 4 6 7 4 6 4 6 12 13 16 19 22 22 25 18 14 13 11 16 18 23 23 21 18 18 19 20
11 1 4 7 9 5 1 1 1 3 3 3 4 4 6 6 6 6 5 4 2 2 3 2 4 5 3 4 4 4 5 6 11 12 11 14 18 22 22 21 21 14 10 11 7 10 12 17 18 17 19 19 19 19
2 4 7 9 9 3 1 2 2 3 4 4 4 2 3 4 5 5 3 4 4 3 2 3 3 5 5 5 6 6 8 8 9 11 12 15 21 21 16 17 18 8 6 9 10 12 15 18 19 14 16 17 16 17
10 11 14 12 5 2 1 2 2 3 3 2 3 4 4 4 5 7 5 4 5 2 3 3 5 5 5 6 8 10 12 11 11 14 15 18 17 17 18 16 12 7 5 9 11 11 11 14 11 10 11 9 10 9
11 8 8 4 6 1 2 2 1 3 3 2 3 3 3 3 2 2 4 3 4 3 4 4 5 5 5 6 6 9 11 11 10 11 13 14 13 16 16 12 7 7 3 7 9 8 8 10 9 10 10 10 8 5
5 4 2 1 1 1 2 2 2 2 3 4 3 3 4 2 3 2 1 3 3 3 5 7 10 8 7 10 8 8 10 9 8 8 11 13 13 11 8 9 12 9 8 6 7 6 6 4 4 3 3 4 4 4
3 6 2 1 2 2 3 3 3 2 3 3 4 2 4 4 3 2 3 3 3 4 4 3 6 7 8 10 9 9 10 10 9 10 11 12 7 7 9 10 12 11 11 8 8 7 7 7 6 4 5 7 6 6
4 1 2 1 2 2 3 2 3 2 3 4 3 3 3 3 1 2 2 2 3 2 4 7 7 7 7 10 7 7 8 7 7 9 10 9 7 7 8 9 9 9 8 7 4 5 9 10 9 7 6 7 8 10
3 3 3 3 2 4 4 3 3 3 3 3 3 3 4 3 3 1 3 3 3 5 7 7 4 4 4 4 4 4 5 5 6 7 7 8 7 8 8 8 8 8 8 7 6 7 10 12 12 9 9 11 10 9
3 5 3 4 1 3 5 5 5 4 7 7 6 5 3 1 3 2 3 4 4 5 6 6 5 5 4 4 5 6 5 4 7 9 11 12 12 9 8 7 10 11 10 11 11 12 12 12 8 9 12 13 15 13
4 4 4 6 4 4 5 6 7 7 5 10 12 7 3 2 3 6 3 5 4 5 7 6 6 5 5 4 4 5 7 7 6 6 9 9 11 11 11 12 11 11 11 9 10 11 11 10 12 15 11 15 15 14
4 5 2 2 3 5 4 3 5 5 7 9 12 11 6 7 4 3 4 6 4 4 6 5 5 4 4 5 4 4 4 4 4 4 5 9 10 11 11 12 15 12 11 12 11 12 11 11 11 12 13 12 12 12
3 4 6 7 3 1 5 5 5 8 7 6 8 11 5 10 6 5 3 6 5 6 5 4 5 4 4 5 5 5 4 7 4 2 3 8 10 10 12 9 7 6 12 14 12 12 12 12 12 13 13 12 11 11
2 2 3 5 4 3 3 5 6 4 3 5 10 8 6 5 4 4 5 8 5 2 4 5 5 3 1 3 5 6 7 8 11 18 17 12 11 11 10 9 9 10 9 12 14 14 16 13 13 12 14 13 12 14
3 3 4 4 5 5 5 3 4 5 4 4 2 2 3 3 7 7 8 8 10 10 11 11 11 11 11 10 10 12 11 11 11 11 11 12 11 9 10 11 11 11 10 12 12 8 5 11 10 11 13 11 10 12
1 2 4 3 2 3 4 4 4 6 7 8 8 8 8 6 8 9 9 8 7 8 10 11 10 6 6 7 9 10 10 10 12 12 9 8 10 10 11 12 11 12 13 14 15 15 15 15 13 14 16 16 15 15
2 3 3 2 3 3 3 3 6 8 10 10 9 4 7 9 11 9 11 11 10 10 9 10 10 10 9 7 5 3 2 4 6 8 10 7 7 9 9 9 10 10 12 13 13 13 15 16 14 15 16 17 17 17
3 2 3 2 1 3 2 2 4 5 6 7 8 8 8 6 5 2 6 11 10 10 10 9 7 5 6 6 6 4 3 6 5 1 3 5 5 8 6 8 9 10 9 7 8 9 11 13 12 12 12 12 12 12
Wind_Direction
328 332 331 329 334 337 336 330 332 313 315 311 319 329 338 351 6 312 55 5 328 308 300 246 252 242 210 250 250 104 205 194 199 229 236 204 252 202 247 251 211 201 207 211 232 238 232 56 191 242 53 91 39 17
327 329 330 326 331 331 328 326 327 290 304 301 302 314 323 330 1 300 285 17 332 268 346 320 288 287 276 292 297 206 353 325 294 244 214 278 226 254 238 228 203 242 231 254 217 225 115 69 90 97 60 94 70 23
324 325 326 324 328 330 327 322 316 302 283 293 301 303 311 310 297 277 313 12 277 299 266 228 219 183 232 237 256 265 211 310 227 342 331 277 257 316 227 232 254 220 273 245 253 228 188 137 118 102 72 49 40 28
319 321 324 323 323 326 326 319 303 309 276 289 296 293 295 306 329 298 272 160 227 296 285 71 136 192 164 168 221 248 274 263 291 247 248 259 254 171 262 297 265 246 152 226 232 271 106 187 175 109 45 12 14 352
317 315 317 320 321 322 322 323 314 309 266 274 283 299 306 316 342 279 268 220 228 273 319 321 316 283 343 253 252 228 227 234 231 221 235 240 261 275 247 261 250 242 240 241 243 233 241 300 150 277 322 336 335 333
317 315 318 317 319 318 320 317 310 302 270 279 276 291 298 313 299 268 203 138 187 160 270 287 16 291 305 271 225 205 210 220 238 248 254 251 263 244 259 252 252 251 246 250 263 283 277 270 259 294 293 294 290 311
320 319 318 317 317 315 314 311 296 298 273 283 275 271 291 294 272 273 356 60 135 168 243 262 253 113 287 271 178 179 184 198 236 230 245 252 233 210 259 254 253 288 261 253 246 251 262 264 266 267 270 286 283 291
315 314 315 314 314 313 309 304 304 270 285 291 291 283 271 270 266 258 226 162 173 203 241 275 277 228 202 205 162 172 190 193 223 231 227 239 232 227 255 261 244 249 254 251 242 243 252 260 260 261 262 258 268 273
314 314 313 313 311 314 320 311 302 295 290 285 284 276 237 218 221 115 128 176 215 265 250 202 255 22 179 237 100 197 210 208 253 231 235 233 228 228 246 257 255 259 257 263 257 254 252 256 260 257 252 254 257 266
309 310 308 310 310 311 304 308 307 295 297 290 229 202 194 193 5 143 152 163 163 175 209 248 266 258 206 200 172 266 173 224 232 207 273 247 254 264 261 261 264 270 272 271 266 261 258 254 253 253 253 257 260 261
306 308 306 304 303 298 305 311 300 299 249 216 217 297 60 241 234 205 202 191 150 216 203 227 218 233 40 230 202 229 275 216 245 172 223 225 245 228 347 263 271 271 269 267 260 259 260 264 262 253 249 246 245 244
307 308 308 310 299 297 300 289 286 262 4 26 346 312 282 235 224 250 268 139 215 229 183 202 194 198 214 178 205 183 251 223 252 132 232 249 233 125 334 305 295 279 278 274 271 267 261 252 250 252 252 248 248 243
312 313 314 303 296 293 282 250 239 266 192 189 207 211 210 122 196 228 192 201 224 175 128 155 222 203 165 198 199 236 227 233 11 216 233 236 268 272 306 307 299 288 271 261 256 254 252 252 240 238 244 242 240 245
316 327 330 323 305 270 249 246 241 200 251 245 231 218 231 183 232 212 253 347 56 144 190 232 238 202 165 185 212 238 227 237 224 224 229 255 299 308 300 297 297 295 287 267 246 241 241 235 233 227 231 237 237 239
333 329 330 351 10 358 183 190 204 218 262 258 218 242 214 258 238 260 313 286 284 315 308 293 239 217 184 220 202 234 230 231 243 254 290 310 316 306 302 301 299 290 275 268 257 245 236 224 221 216 220 224 230 239
332 330 27 5 8 14 135 184 203 187 251 241 247 263 246 263 259 262 260 269 321 302 281 235 262 250 223 216 210 222 249 234 244 297 312 315 302 293 292 295 294 290 278 260 252 256 227 212 208 205 211 221 229 235
322 20 38 4 345 330 224 269 211 221 253 237 233 256 272 276 270 265 255 243 193 232 226 229 234 236 297 232 234 207 232 265 308 310 303 300 296 295 295 293 294 284 267 259 233 224 196 193 192 195 209 221 229 234
287 350 318 327 325 314 271 207 246 252 251 248 260 241 216 228 255 252 229 201 203 211 210 233 322 251 255 253 239 276 303 294 290 304 308 299 293 292 286 295 300 297 207 221 198 184 183 184 191 196 209 222 224 233
312 306 306 299 279 321 285 211 212 273 271 274 255 248 246 248 236 245 250 217 203 230 290 227 242 231 237 269 299 306 307 318 317 306 303 300 302 310 318 320 332 121 168 166 171 174 179 191 195 197 208 216 230 233
303 291 309 305 183 245 255 224 222 265 278 305 263 260 244 247 261 227 220 192 176 195 203 231 228 240 257 281 294 295 292 296 295 303 309 311 322 326 325 335 355 9 158 154 173 176 177 192 204 209 212 213 207 190
268 36 329 178 164 262 293 299 259 246 284 268 280 295 286 250 259 240 207 140 187 218 229 227 244 263 262 274 280 275 282 287 293 294 295 299 326 320 341 6 8 22 17 24 54 33 51 37 32 60 103 106 116 127
8 340 308 156 262 216 254 215 250 272 258 278 290 256 276 285 272 202 138 187 235 234 220 257 281 290 293 289 295 301 292 306 291 291 291 297 314 339 354 5 15 10 353 10 37 31 21 28 24 35 109 99 93 72
313 269 261 275 301 256 287 158 266 224 281 283 264 265 255 270 270 100 260 239 271 278 269 281 296 292 283 292 298 304 334 341 319 319 324 337 342 6 14 21 10 356 352 20 50 31 50 45 36 35 71 75 85 86
155 313 329 328 291 311 320 286 234 255 254 265 280 283 313 321 325 315 304 299 301 305 321 349 329 317 330 354 356 349 345 328 317 312 328 333 356 24 9 39 18 0 4 44 33 40 39 37 24 27 58 68 61 59
334 13 344 331 277 321 284 306 321 321 357 3 326 299 346 37 350 331 291 303 322 334 344 346 354 17 15 357 351 331 327 337 348 1 18 4 360 29 12 33 48 12 6 28 30 33 25 35 34 50 50 53 66 65
46 34 354 2 310 333 335 328 347 352 306 358 1 337 334 83 41 325 300 313 319 331 347 14 16 4 9 358 328 338 322 342 331 357 17 13 26 15 14 22 24 24 18 28 39 47 47 42 47 58 56 50 36 61
34 18 352 178 285 280 283 288 296 278 7 16 353 6 25 12 332 304 319 350 329 333 343 1 1 359 355 351 353 339 351 11 22 348 16 31 36 39 36 27 22 11 15 26 41 49 52 53 53 56 59 55 59 68
354 339 335 338 305 317 314 335 335 7 20 8 29 44 24 355 352 323 332 328 324 331 349 12 11 12 1 357 348 341 314 325 315 269 35 57 45 34 34 40 47 54 45 25 25 46 51 54 52 54 64 68 58 54
293 330 304 295 302 267 324 1 17 33 37 6 42 50 38 37 10 347 328 346 339 313 26 20 3 328 340 69 66 29 10 15 37 49 41 34 26 29 24 39 40 38 56 64 49 49 57 55 54 56 59 60 61 59
315 352 296 297 346 38 25 11 27 41 32 25 14 87 119 66 27 13 14 15 30 25 36 36 22 18 29 28 46 55 39 33 31 38 36 36 30 34 42 51 53 53 54 58 70 96 104 71 59 57 58 58 58 59
240 263 277 256 350 42 13 4 33 63 68 49 34 43 59 52 61 41 19 349 23 33 27 38 55 58 34 20 22 25 43 37 30 32 29 61 62 57 57 60 59 59 59 61 63 66 70 73 71 72 77 78 79 79
250 260 288 287 63 59 72 83 84 58 47 57 48 52 24 34 24 23 16 3 8 13 20 19 26 29 24 59 69 69 311 350 360 7 22 40 54 61 59 53 60 56 55 56 60 64 66 69 72 75 75 74 74 73
264 256 266 308 32 96 55 339 45 50 37 36 37 24 32 29 28 300 341 21 4 358 358 351 4 14 21 14 24 26 360 27 32 22 0 15 11 346 350 33 26 24 39 59 71 76 73 74 73 71 70 70 71 71